Время (UTC), дата Ветер
(°,м/с) 
Видим.   Явления Облачность Т
(°С)
Тd
(°С)
f(%) Тe
(°С)
Pmin
(гПа)
dP
(гПа)
Po
(мм)
O2
(г/м3)
Тmin Tmax R s Состояние
почвы
00 01.10.13 080 (В) 20000 м    ясно 
+4.1 +1.4 83 +5  1018  -0.5  722  287           
03 01.10.13 080 (В) 20000 м    3/0 верхняя 
[Ci fib]
+2.7 +1.1 89 +2  1017.7  -0.6  722  288  +2.6        влажная 
06 01.10.13 100 (В) 10 км    8/0 средняя, верхняя 
[Ac trans|Ci fib]
+6.4 +4.7 89 +5  1016.1  -0.8  721  283  +2.2         
09 01.10.13 110 (В) 20000 м    9/5 300 м средняя 
[Sc|Ac trans]
+11.9 +6.1 68 +11  1013.5  -1.4  720  277           
12 01.10.13 110 (В) 8-10{10}  20000 м    9/4 600 м средняя 
[Sc|Ac trans]
+12.1 +6.5 69 +10  1011.9  -1.5  719  276           
15 01.10.13 080 (В) 6{10}  20000 м    10/0 средняя, верхняя 
[Ac trans|Ci fib]
+10.3 +6.3 76 +9  1010.9  -1.2  718  278    +12.9       
18 01.10.13 080 (В) 7{10}  20000 м    3/0 средняя 
[Ac trans]
+9.2 +5.6 78 +7  1009.7  -1.4  717  279           
21 01.10.13 100 (В) 7-10{11}  20000 м    4/0 средняя 
[Ac trans]
+8 +6 87 +6  1008.5  -1.3  716  279           
00 02.10.13 120 (ЮВ) 7{10}  10 км    9/4 200 м средняя 
[St|Ac trans]
+9 +8.1 94 +7  1006.7  -1.5  715  277           
03 02.10.13 120 (ЮВ) 20000 м    10/10 200 м 
[St]
+9.6 +8.8 95 +10  1005.4  -1.1  714  276  +7.9        влажная 
06 02.10.13 120 (ЮВ) 7-10{10}  10 км    10/10 120 м 
[St]
+11.3 +10.2 93 +12  1004.3  -0.7  714  274           
09 02.10.13 120 (ЮВ) 6{10}  20000 м    10/10 180 м 
[St]
+12.8 +10.7 87 +15  1004.3  0.2  714  273           
12 02.10.13 110 (В) 20000 м    10/6 300 м средняя 
[St|Ac und]
+14 +10.8 81 +16  1004  714  272           
15 02.10.13 110 (В) 4000 м  дымка  10/10 100 м 
[St]
+12.1 +11.4 96 +15  1004.7  0.3  714  273    +14.4       
18 02.10.13 140 (ЮВ) 0200 м  туман  ?/?  
+11.8 +11.2 96 +15  1005.8  715  274           
21 02.10.13 160 (Ю) 10 км  {туман}  10/10 150 м 
[St]
+11.7 +11.1 96 +16  1005.9  0.1  715  274           
00 03.10.13 130 (ЮВ) 20000 м  слаб. ливневой дождь  10/6 600 м кучево-дожд., средняя 
[Cb cap|Ac und]
+11.3 +10.8 97 +14  1005.9  0.1  715  275           
03 03.10.13 060 (СВ) 0200 м  туман  ?/?  
+10.5 +10 97 +12  1005.9  0.1  715  275  +10.5    0.5    влажная 
06 03.10.13 050 (СВ) 0200 м  туман  ?/?  
+8.2 +7.8 97 +7  1007.6  1.1  716  279  +8.2         
09 03.10.13 050 (СВ) 2000 м  ливневой дождь{туман}  10/8 100 м кучево-дожд., средняя 
[Cb cap|Ac und]
+8.5 +8 97 +7  1009.3  1.6  717  279           
12 03.10.13 360 (С) 2500 м  ливневой дождь{туман}  10/8 210 м кучево-дожд., средняя 
[Cb cap|Ac und]
+8.7 +8.2 97 +10  1010.8  1.5  718  279           
15 03.10.13 340 (С) 10 км  слаб. ливневой дождь{туман}  10/8 200 м кучево-дожд., средняя 
[Cb cap|Ac und]
+9.6 +9.1 97 +11  1011  0.4  718  278    +10.6  34     
18 03.10.13 080 (В) 0300 м  слаб. ливневой дождь{туман}  ?/?  
+8 +7.6 97 +8  1013.4  1.9  720  280           
21 03.10.13 270 (З) 0300 м  слаб. ливневой дождь{туман}  ?/?  
+8.3 +7.9 97 +9  1013.4  -0.1  720  280           
00 04.10.13 330 (СЗ) 10 км  слаб. ливневой дождь{туман}  10/8 750 м кучево-дожд., средняя 
[Cb cap|Ac und]
+7.7 +7.2 97 +9  1013.4  0.1  720  281           
03 04.10.13 310 (СЗ) 4000 м  дымка{ливн. осадки}  10/8 100 м кучево-дожд., средняя 
[Cb calv|Ac und]
+6.4 +6 97 +5  1015  1.3  721  283  +6.4       
06 04.10.13 330 (СЗ) 4000 м  дымка{ливн. осадки}  10/8 180 м кучево-дожд., средняя 
[Cb cap|Ac und]
+5 +4.2 94 +4  1016.2  0.8  721  285  +4.6         
09 04.10.13 020 (С) 20000 м  {ливн. осадки}  10/8 270 м кучево-дожд., средняя 
[Cb cap|Ac und]
+6.6 +4.8 88 +6  1016.5  0.5  722  283           
12 04.10.13 350 (С) 20000 м  {ливн. осадки}  10/8 400 м кучево-дожд., средняя 
[Cb calv|Ac und]
+8.1 +3.7 74 +9  1016.3  0.1  722  282           
15 04.10.13 310 (СЗ) 20000 м    10/8 600 м кучево-дожд., средняя 
[Cb calv|Ac und]
+7.4 +3.8 78 +7  1017.7  1.2  723  283    +8.2  0.5     
18 04.10.13 120 (ЮВ) 4000 м  дымка  10/8 120 м средняя 
[Sc diur, vesp|Ac und]
+6.2 +5.6 96 +7  1018.6  0.6  723  284           
21 04.10.13 280 (З) 20000 м    8/8 600 м 
[Sc]
+6.1 +3.5 83 +5  1018.5  0.6  723  284           
00 05.10.13 270 (З) 20000 м    9/8 800 м средняя 
[Sc|Ac und]
+5.4 +1.3 75 +4  1018.2  -0.5  723  285           
03 05.10.13 270 (З) 20000 м    8/6 600 м средняя 
[Sc|Ac trans]
+4.8 +2.1 83 +4  1019  0.7  723  286  +4.8        влажная 
06 05.10.13 240 (ЮЗ) 20000 м    10/6 800 м кучево-дожд., средняя 
[Cb calv|Ac und]
+6.5 +3 78 +5  1019.5  0.7  724  284  +4.2         
09 05.10.13 220 (ЮЗ) 20000 м    9/4 600 м кучево-дожд., средняя 
[Cb calv|Ac trans]
+8.8 +3.7 70 +8  1019.2  0.1  724  282           
12 05.10.13 250 (З) 20000 м    9/4 600 м кучево-дожд., средняя 
[Cb calv|Ac trans]
+9.5 +2.5 62 +9  1018.8  -0.2  724  281           
15 05.10.13 250 (З) 20000 м    10/6 1000 м кучево-дожд., средняя 
[Cb calv|Ac und]
+6.9 +3 76 +6  1019.8  0.5  724  284    +9.7       
18 05.10.13 210 (ЮЗ) 20000 м  в посл. час ливневой дождь  10/4 600 м кучево-дожд., средняя 
[Cb calv|Ac As]
+6 +3.5 84 +5  1020.9  0.8  725  285           
21 05.10.13 270 (З) 20000 м    10/6 600 м кучево-дожд., средняя 
[Cb calv|Ac und]
+4.3 +2.8 90 +3  1021.2  0.1  725  287           
00 06.10.13 220 (ЮЗ) 20000 м    10/6 500 м средняя 
[Sc diur, vesp|Ac As]
+5.1 +3.1 87 +3  1021.1  725  286           
03 06.10.13 240 (ЮЗ) 20000 м    9/5 300 м средняя 
[St|Ac trans]
+4.1 +2 86 +2  1022  0.7  725  288  +3.2    0.0    влажная 
06 06.10.13 260 (З) 20000 м    10/8 180 м средняя 
[St|Ac und]
+4.4 +2.8 89 +3  1023.2  1.2  726  287           
09 06.10.13 300 (СЗ) 20000 м    10/8 300 м средняя 
[St|Ac und]
+5.2 +2.4 82 +4  1023.3  0.2  726  287           
12 06.10.13 330 (СЗ) 20000 м    10/8 270 м средняя 
[St|Ac und]
+4.6 +3.1 90 +3  1024.2  0.8  727  288           
15 06.10.13 360 (С) 20000 м    10/8 210 м кучево-дожд., средняя 
[Cb calv|Ac und]
+3.8 +2.8 93 +3  1025.7  1.2  728  289    +5.4       
18 06.10.13 020 (С) 20000 м    10/6 210 м кучево-дожд., средняя 
[Cb cap|Ac und]
+3.3 +2.3 93 +2  1027.4  1.4  729  290           
21 06.10.13 050 (СВ) 10 км    10/8 120 м кучево-дожд., средняя 
[Cb calv|Ac und]
+3 +1.9 92 +2  1027.9  0.4  729  290           
00 07.10.13 070 (В) 20000 м    10/8 120 м кучево-дожд., средняя 
[Cb cap|Ac und]
+2.9 +2 94 +2  1028.6  0.7  730  291           
03 07.10.13 060 (СВ) 2000 м  дымка{морось}  10/10 100 м 
[St]
+2.2 +1.6 96 1030  1.2  731  292  +2.2         
06 07.10.13 060 (СВ) 3000 м  дымка{дождь, морось}  10/10 120 м 
[Frnb|Ns]
+2.7 +2 95 +1  1031.6  1.6  732  292  +2         
09 07.10.13 080 (В) 4000 м  дымка{морось}  10/10 210 м 
[St]
+3.9 +2.6 91 +3  1031.9  0.5  732  290           
12 07.10.13 130 (ЮВ) 10 км  {морось}  10/10 240 м 
[St]
+4.8 +3 88 +6  1031.7  732  289           
15 07.10.13 130 (ЮВ) 4000 м  слаб. дождь  10/10 100 м 
[St]
+4.5 +3.6 94 +5  1032.2  0.4  733  290    +5  0.5     
18 07.10.13 120 (ЮВ) 10 км  {дождь}  10/10 300 м 
[St]
+4.3 +3.5 95 +3  1032.6  0.4  733  290           
21 07.10.13 200 (Ю) 1000 м  дымка{туман}  ясно 
+1.9 +1.3 96 +1  1033  0.1  733  293           
00 08.10.13 170 (Ю) 20000 м  {туман}  ясно 
+0.9 +0.4 96 +2  1033.3  0.1  733  294           
03 08.10.13 170 (Ю) 20000 м    ясно 
-0.9 -1.4 96 -2  1033.5  -0.2  733  296  -1.2        замёрзшая 
06 08.10.13 050 (СВ) 20000 м    3/3 600 м 
[Sc diur, vesp]
+6.3 +2.4 76 +7  1032.6  0.6  733  288           
09 08.10.13 270 (З) 20000 м    3/3 600 м 
[Sc diur, vesp]
+10.6 +1.8 54 +10  1031.3  -0.4  733  284           
12 08.10.13 280 (З) 7-11{11}  20000 м    6/3 600 м верхняя 
[Sc diur, vesp|Ci fib]
+11.1 +3 57 +9  1030  -1.1  732  283           
15 08.10.13 290 (З) 3{11}  20000 м    4/0 верхняя 
[Ci fib]
+8 +3.8 75 +7  1030.8  0.2  732  286    +11.8       
18 08.10.13 280 (З) 20000 м    3/0 верхняя 
[Ci fib]
+5.1 +2.8 85 +4  1032  0.5  733  289           
21 08.10.13 260 (З) 20000 м    3/3 600 м 
[Sc]
+4 +2.4 89 +3  1032  -0.3  732  290           
00 09.10.13 280 (З) 20000 м    3/3 600 м средняя 
[Sc|Ac trans]
+5.8 +3 82 +4  1031  -0.6  732  288           
03 09.10.13 260 (З) 20000 м    3/1 600 м средняя 
[Sc|Ac trans]
+5 +2.4 83 +3  1031.5  -0.6  732  289  +3.2        влажная 
06 09.10.13 260 (З) 20000 м    3/3 600 м верхняя 
[Sc|Ci fib]
+10.4 +5.2 70 +9  1030.7  0.3  732  283           
09 09.10.13 310 (СЗ) 20000 м    5/5 600 м 
[Sc]
+12.4 +4.9 60 +12  1029.8  -0.5  732  281           
12 09.10.13 340 (С) 20000 м    1/0 средняя 
[Ac trans]
+13.8 +3.5 50 +14  1028.5  -1.1  731  280           
15 09.10.13 060 (СВ) 20000 м    ясно 
+9.1 +4.7 74 +9  1029  -0.3  731  284    +14.3       
18 09.10.13 090 (В) 20000 м    ясно 
+7 +3.9 81 +7  1029.5  731  287           
21 09.10.13 130 (ЮВ) 20000 м    ясно 
+6.5 +3.7 82 +6  1029  -0.5  731  287           
00 10.10.13 140 (ЮВ) 20000 м    ясно 
+5.8 +4.3 90 +4  1028.2  -0.9  730  287           
03 10.10.13 130 (ЮВ) 20000 м    ясно 
+4.6 +3.2 91 +3  1028.1  -0.3  730  289  +4.6        влажная 
06 10.10.13 130 (ЮВ) 20000 м    ясно 
+10.7 +5.6 71 +10  1026.8  0.1  730  282  +4.3         
09 10.10.13 120 (ЮВ) 8-10{10}  20000 м    ясно 
+16.8 +3.6 41 +16  1024.6  -1  729  276           
12 10.10.13 100 (В) 6{11}  20000 м    ясно 
+17.6 +4.8 43 +17  1023.7  -0.7  728  275           
15 10.10.13 100 (В) 5{10}  20000 м    ясно 
+12.2 +7 70 +11  1024.7  728  280    +18       
18 10.10.13 110 (В) 20000 м    ясно 
+10.1 +7.9 86 +9  1024.8  -0.3  728  282           
21 10.10.13 140 (ЮВ) 20000 м    3/0 средняя 
[Ac trans]
+8.8 +7.7 93 +8  1024.6  -0.4  728  283           
00 11.10.13 130 (ЮВ) 20000 м    10/6 210 м средняя 
[St|Ac und]
+10 +9.1 94 +9  1024.2  0.1  728  281           
03 11.10.13 140 (ЮВ) 20000 м    10/6 300 м средняя 
[St|Ac und]
+10 +8.7 92 +8  1024.6  0.3  728  281  +8.3        сухая 
06 11.10.13 130 (ЮВ) 8-11{11}  20000 м    10/10 300 м 
[St]
+11.6 +8.7 82 +10  1023.9  -0.4  728  280           
09 11.10.13 150 (ЮВ) 6{12}  20000 м    6/0 верхняя 
[Ci]
+16.8 +9.6 62 +18  1022.5  -0.3  728  274           
12 11.10.13 110 (В) 20000 м    8/0 верхняя 
[Ci]
+18.4 +9.8 57 +20  1021.6  -0.6  727  273           
15 11.10.13 160 (Ю) 20000 м    8/0 средняя, верхняя 
[Ac lent|Ci]
+13.4 +9.8 79 +14  1022.9  0.3  727  278    +18.7       
18 11.10.13 160 (Ю) 20000 м    4/0 средняя 
[Ac trans]
+11.6 +9.7 88 +13  1022.9  -0.3  727  279           
21 11.10.13 150 (ЮВ) 20000 м    5/0 верхняя 
[Ci fib]
+9.9 +8.5 91 +9  1022.4  -0.8  726  281           
00 12.10.13 240 (ЮЗ) 20000 м    4/0 средняя 
[Ac trans]
+9.5 +8.2 92 +10  1021.6  -0.8  726  281           
03 12.10.13 270 (З) 20000 м    4/0 средняя 
[Ac trans]
+10.9 +8.8 87 +10  1022  0.6  726  280  +9.3        сухая 
06 12.10.13 280 (З) 20000 м    4/0 средняя 
[Ac trans]
+15.1 +8.3 64 +15  1021.7  0.5  727  276           
09 12.10.13 280 (З) 5{10}  20000 м    3/0 верхняя 
[Ci fib]
+18.1 +8 52 +18  1020.7  -0.4  726  273           
12 12.10.13 290 (З) 6{10}  20000 м    3/0 верхняя 
[Ci fib]
+18.8 +5.3 41 +19  1019.7  -0.9  726  273           
15 12.10.13 280 (З) 20000 м    ясно 
+13.7 +5.3 57 +14  1021.2  0.5  726  278    +19.5       
18 12.10.13 350 (С) 1000 м  дымка  10/10 30 м 
[St]
+11 +10.2 95 +13  1022.3  0.6  727  280           
21 12.10.13 330 (СЗ) 2000 м  дымка{туман}  10/10 100 м 
[St]
+10.6 +10.1 97 +13  1021.9  -0.5  726  280           
00 13.10.13 310 (СЗ) 3000 м  дымка{туман}  4/4 300 м 
[St]
+9.5 +8.7 95 +10  1021.9  -0.2  726  281           
03 13.10.13 300 (СЗ) 2000 м  дымка{туман}  9/9 600 м 
[Sc]
+8.6 +8 96 +7  1022.6  0.4  726  282  +8.2         
06 13.10.13 290 (З) 10 км  {туман}  8/3 600 м средняя 
[Sc|Ac trans]
+12.4 +8.7 78 +13  1022.3  0.5  727  279           
09 13.10.13 310 (СЗ) 20000 м    10/6 1000 м средняя 
[Sc|Ac und]
+12.8 +8.7 76 +13  1022.1  0.1  727  278           
15 13.10.13 310 (СЗ) 20000 м    8/4 1000 м средняя 
[Sc|Ac trans]
+10.4 +8.8 90 +12  1022.7  0.6  727  280    +13.6       
18 13.10.13 220 (ЮЗ) 10 км    8/8 1000 м 
[Sc diur, vesp]
+8.9 +7.8 93 +8  1023  727  282           
21 13.10.13 270 (З) 20000 м    8/5 1000 м средняя 
[Sc|Ac trans]
+10.4 +7 79 +11  1022  -0.7  726  281           
00 14.10.13 320 (СЗ) 20000 м    ясно 
+8 +7 93 +7  1022.5  0.1  726  283           
03 14.10.13 280 (З) 2000 м  дымка  9/9 100 м 
[St]
+9.6 +8.9 95 +9  1022.5  0.3  727  281  +7.9         
06 14.10.13 290 (З) 4000 м  дымка{туман}  6/3 200 м средняя 
[St|Ac trans]
+10.5 +7.9 84 +10  1023.8  1.3  728  281           
09 14.10.13 310 (СЗ) 20000 м    8/8 1080 м 
[Sc]
+13 +4.9 58 +13  1022.9  -0.4  727  279           
12 14.10.13 270 (З) 20000 м    4/4 1000 м 
[Sc]
+14.5 +6.1 57 +14  1021.9  -0.4  727  277           
15 14.10.13 290 (З) 20000 м    3/0 верхняя 
[Ci fib]
+11.2 +6.1 71 +11  1022.8  0.4  727  280    +15.4       
18 14.10.13 290 (З) 20000 м    3/0 верхняя 
[Ci fib]
+9.5 +5.6 77 +10  1024.3  728  282           
21 14.10.13 270 (З) 20000 м    6/3 1000 м средняя 
[Sc|Ac trans]
+8.4 +6.3 87 +8  1024.4  0.1  728  283           
00 15.10.13 280 (З) 20000 м    3/0 верхняя 
[Ci fib]
+7.3 +5.5 88 +7  1024.6  0.1  728  285           
03 15.10.13 290 (З) 20000 м    9/5 600 м средняя 
[Sc|Ac trans]
+8.6 +7.1 90 +9  1024.3  728  283  +7        сухая 
06 15.10.13 320 (СЗ) 20000 м    8/5 600 м средняя 
[Sc|Ac trans]
+12.3 +7.1 71 +13  1024.3  0.8  728  280           
09 15.10.13 280 (З) 20000 м    6/3 1000 м средняя 
[Sc|Ac As]
+15.6 +4.4 47 +17  1023.1  -0.6  728  277           
12 15.10.13 050 (СВ) 20000 м    4/3 1000 м средняя 
[Sc|Ac trans]
+15.8 +4.6 47 +17  1022  -1.1  727  276           
15 15.10.13 080 (В) 20000 м    3/0 средняя 
[Ac trans]
+10.9 +5.4 69 +11  1022.2  -0.7  726  281           
18 15.10.13 100 (В) 20000 м    ясно 
+8.2 +4.5 78 +8  1022  -0.7  726  283           
21 15.10.13 140 (ЮВ) 20000 м    ясно 
+8.8 +6 83 +8  1020.2  -1.5  725  282           
00 16.10.13 150 (ЮВ) 20000 м    4/0 верхняя 
[Ci fib]
+7.4 +5.5 88 +7  1019  -1.4  724  283           
03 16.10.13 150 (ЮВ) 20000 м    4/0 верхняя 
[Ci fib]
+6.9 +5.4 90 +6  1018  -1  723  283  +6.6        сухая 
06 16.10.13 130 (ЮВ) 20000 м    8/0 верхняя 
[Ci fib]
+11.6 +7.8 77 +11  1016.7  -0.3  723  278           
09 16.10.13 130 (ЮВ) 20000 м    6/0 верхняя 
[Ci fib]
+17.1 +7.2 52 +17  1013.9  -1.7  721  272           
12 16.10.13 120 (ЮВ) 20000 м    8/0 верхняя 
[Ci fib]
+17.3 +6.8 50 +18  1012.8  -1  721  272           
15 16.10.13 120 (ЮВ) 20000 м    8/0 средняя, верхняя 
[Ac trans|Ci fib]
+11.1 +7.8 80 +11  1013.8  0.1  721  278    +18.4       
18 16.10.13 160 (Ю) 20000 м    6/0 средняя 
[Ac trans]
+9.1 +6.8 85 +8  1013.7  -0.5  720  280           
21 16.10.13 170 (Ю) 20000 м    8/0 средняя 
[Ac trans]
+10.8 +7.2 78 +10  1012  -1.3  719  277           
00 17.10.13 180 (Ю) 20000 м    9/0 средняя 
[Ac As]
+9.3 +6.9 85 +9  1011.3  -0.9  719  279           
03 17.10.13 150 (ЮВ) 10 км    3/3 300 м 
[Sc]
+8.5 +7.6 94 +9  1011.3  -0.2  718  279  +7.9        сухая 
06 17.10.13 120 (ЮВ) 20000 м    4/0 средняя, верхняя 
[Ac trans|Ci fib]
+15 +7.7 62 +15  1010.5  0.5  719  273           
09 17.10.13 100 (В) 20000 м    8/0 верхняя 
[Ci fib]
+19.3 +9.1 52 +21  1008.9  -0.8  718  269           
12 17.10.13 090 (В) 20000 м    9/0 верхняя 
[Ci fib]
+20.7 +6.1 39 +21  1007.6  -1  717  268           
15 17.10.13 110 (В) 20000 м    9/0 средняя, верхняя 
[Ac trans|Ci fib]
+15.8 +6.8 55 +16  1009  0.5  718  272    +21.3       
18 17.10.13 120 (ЮВ) 20000 м    8/0 средняя 
[Ac trans]
+12.7 +8.3 75 +12  1009.6  0.1  718  275           
21 17.10.13 140 (ЮВ) 20000 м    6/0 средняя 
[Ac trans]
+10.6 +9 90 +11  1009.4  -0.6  717  277           
00 18.10.13 150 (ЮВ) 20000 м    9/0 средняя 
[Ac trans]
+11.4 +9.3 87 +11  1008.6  -0.6  717  276           
03 18.10.13 130 (ЮВ) 20000 м    4/0 средняя 
[Ac trans]
+11.4 +8.3 81 +10  1008.2  -0.4  717  276  +10.3        сухая 
06 18.10.13 110 (В) 20000 м    9/0 средняя 
[Ac trans]
+13.3 +10.3 82 +15  1008.5  0.6  717  274      200    полностью
покрыта
пылью 
09 18.10.13 100 (В) 20000 м    8/0 средняя, верхняя 
[Ac trans|Ci fib]
+20.9 +10.9 53 +24  1005.7  -1.4  716  266           
12 18.10.13 130 (ЮВ) 20000 м    8/0 средняя, верхняя 
[Ac trans|Ci fib]
+20.1 +10.4 54 +23  1004.3  -1.5  715  266           
15 18.10.13 130 (ЮВ) 20000 м    8/0 средняя 
[Ac trans]
+12.8 +10 83 +14  1005.1  -0.5  715  273    +22.2       
18 18.10.13 120 (ЮВ) 20000 м    8/0 средняя 
[Ac trans]
+10.7 +9.7 94 +12  1003.9  -1.5  713  275           
21 18.10.13 160 (Ю) 20000 м    9/0 средняя 
[Ac trans]
+11.2 +9.3 88 +11  1002  -1.7  712  274           
00 19.10.13 190 (Ю) 20000 м    9/0 средняя 
[Ac trans]
+11.9 +8.5 80 +11  1000  -1.8  711  273           
03 19.10.13 280 (З) 7-10{11}  20000 м    10/0 средняя 
[Ac und]
+17.5 +6.2 47 +17  998.9  -0.1  711  268  +10.3        сухая 
06 19.10.13 250 (З) 8-12{16}  20000 м    8/3 1000 м кучево-дожд., средняя 
[Cb calv|Ac trans]
+17.6 +6.3 47 +17  1000.6  1.6  712  268           
09 19.10.13 290 (З) 7-12{15}  20000 м    9/3 1000 м средняя, верхняя 
[Sc|Ac As|Ci sp]
+17.6 +6 46 +17  1002.5  1.8  713  269           
12 19.10.13 300 (СЗ) 5{12}  20000 м    9/3 1000 м средняя, верхняя 
[Sc|Ac As|Ci sp]
+16.6 +7.5 55 +16  1003.8  714  270           
15 19.10.13 270 (З) 5{10}  20000 м    10/3 1000 м средняя 
[Sc|Ac und]
+15.5 +6.7 56 +15  1006.7  2.6  716  272    +18.9       
18 19.10.13 250 (З) 10-15{15}  20000 м    6/0 средняя 
[Ac trans]
+12.2 +8.5 78 +10  1009.5  2.1  718  275           
21 19.10.13 240 (ЮЗ) 12-17{23}  4000 м  слаб. ливневой дождь  10/6 210 м кучево-дожд., средняя 
[Cb cap|Ac und]
+8.3 +6.9 91 +5  1012.9  2.4  719  280           
00 20.10.13 270 (З) 14-19  4000 м  слаб. ливневой дождь  10/3 240 м кучево-дожд., средняя 
[Cb cap|Ac und]
+7.7 +6.6 93 +4  1015.8  2.6  721  282           
03 20.10.13 280 (З) 2000 м  ливневой дождь  10/3 200 м кучево-дожд., средняя 
[Cb cap|Ac und]
+7.1 +6 93 +4  1020.3  4.1  725  283  +7.1       
06 20.10.13 280 (З) 2000 м  слаб. ливневой дождь  10/8 120 м кучево-дожд., средняя 
[Cb cap|Ac und]
+5.8 +5.2 96 +3  1024.4  3.6  727  286  +5.6         
09 20.10.13 280 (З) 7-11  4000 м  дымка{ливн. осадки}  10/8 180 м кучево-дожд., средняя 
[Cb cap|Ac und]
+5.8 +4.9 94 +3  1026.8  2.3  729  287           
12 20.10.13 290 (З) 7-10  10 км  {ливн. осадки}  10/8 300 м кучево-дожд., средняя 
[Cb cap|Ac und]
+6 +4.3 89 +3  1028.2  1.3  730  287           
15 20.10.13 290 (З) 20000 м    10/10 480 м 
[Sc]
+5.3 +2.7 83 +3  1029.7  1.3  731  288    +7.1     
18 20.10.13 280 (З) 2{10}  20000 м    3/3 300 м 
[St]
+2.6 +1.5 93 +2  1031.6  1.2  732  292           
21 20.10.13 220 (ЮЗ) 20000 м    3/3 300 м 
[Sc]
+0.7 -0.2 94 -1  1032.1  0.1  732  294           
00 21.10.13 250 (З) 20000 м    ясно 
+1.5 +0.4 92 1031.4  -0.5  732  293           
03 21.10.13 250 (З) 20000 м    3/0 верхняя 
[Ci fib]
+1.8 +0.6 92 +1  1031  -0.3  731  293  +0         
06 21.10.13 250 (З) 20000 м    4/0 средняя 
[Ac trans]
+7.8 +4 77 +6  1029.3  -0.4  731  286           
09 21.10.13 260 (З) 20000 м    5/3 300 м верхняя 
[St|Ci fib]
+11.3 +4.6 63 +10  1027.6  -1  730  282           
12 21.10.13 300 (СЗ) 20000 м    1/0 верхняя 
[Ci fib]
+12.6 +2.3 49 +12  1025.7  -1.5  729  280           
15 21.10.13 290 (З) 20000 м    3/0 средняя 
[Ac trans]
+8.5 +4.1 74 +9  1026.2  -0.3  729  284    +13       
18 21.10.13 220 (ЮЗ) 20000 м    1/0 средняя 
[Ac trans]
+5.9 +2.8 80 +6  1026.1  -0.6  728  287           
21 21.10.13 240 (ЮЗ) 20000 м    ясно 
+6.7 +1.6 70 +7  1025  -0.9  728  286           
00 22.10.13 300 (СЗ) 20000 м    ясно 
+5.9 +3.1 82 +6  1023.6  -1.5  727  286           
03 22.10.13 300 (СЗ) 20000 м    3/0 средняя 
[Ac trans]
+6.1 +4.1 87 +5  1023.2  -0.4  726  286  +4.8        влажная 
06 22.10.13 220 (ЮЗ) 20000 м    9/4 1000 м средняя, верхняя 
[Sc|Ac trans|Ci fib]
+8.8 +6.4 85 +10  1022.3  -0.2  726  282           
09 22.10.13 170 (Ю) 20000 м    10/4 1000 м средняя 
[Sc|Ac und]
+12.1 +5.8 65 +12  1020.5  -0.2  725  279           
12 22.10.13 260 (З) 8-11{13}  20000 м  {дождь}  9/4 1000 м средняя 
[Sc|Ac trans]
+13.1 +2.3 48 +12  1019.3  -1  725  278           
18 22.10.13 280 (З) 20000 м    9/0 средняя 
[Ac trans]
+11.5 +5.7 68 +10  1020.2  0.7  725  279           
21 22.10.13 290 (З) 5{11}  20000 м  в посл. час ливневой дождь  9/4 1000 м кучево-дожд., средняя 
[Cb calv|Ac trans]
+10.5 +8.2 86 +9  1020.5  0.1  725  280           
00 23.10.13 290 (З) 10 км  {ливн. осадки}  10/8 600 м кучево-дожд., средняя 
[Cb calv|Ac und]
+10.3 +8.7 90 +10  1021.3  0.1  726  280           
03 23.10.13 350 (С) 0300 м  слаб. морось{туман}  ?/?  
+9.4 +8.8 96 +9  1022.7  1.2  727  281  +9.4    0.3     
06 23.10.13 040 (СВ) 0100 м  слаб. морось{туман}  ?/?  
+6 +5.5 97 +4  1025.8  2.2  728  286  +6         
09 23.10.13 050 (СВ) 0100 м  слаб. морось{туман}  ?/?  
+4.4 +3.9 97 +2  1027.9  1.6  730  289           
12 23.10.13 060 (СВ) 4000 м  дымка{морось, туман}  10/10 120 м 
[St]
+3.4 +2.9 97 +1  1030.2  731  290           
15 23.10.13 070 (В) 10 км    10/10 300 м 
[St]
+2.6 +1.2 90 1033.1  2.6  733  292    +9.4  0.4     
18 23.10.13 100 (В) 20000 м    3/0 средняя 
[Ac trans]
+0.6 -0.7 91 -2  1035.2  1.5  734  295           
21 23.10.13 080 (В) 20000 м    3/3 300 м 
[Sc]
-0.9 -4.1 79 -5  1035.6  0.1  734  297           
00 24.10.13 080 (В) 20000 м    ясно 
-3 -5.2 85 -7  1036.4  0.3  734  300           
03 24.10.13 100 (В) 20000 м    1/0 средняя 
[Ac trans]
-2.9 -4.9 86 -7  1036.3  0.1  734  300  -3.2         
06 24.10.13 110 (В) 20000 м    1/0 средняя 
[Ac trans]
+0.6 -2.7 79 -3  1036.1  0.5  735  296           
09 24.10.13 120 (ЮВ) 8-11{12}  20000 м    1/0 средняя 
[Ac trans]
+7.3 -0.7 57 +5  1033.6  -1  734  288           
12 24.10.13 110 (В) 8-11{12}  20000 м    1/0 средняя 
[Ac trans]
+8.1 -0.7 54 +6  1032.5  -0.9  733  287           
15 24.10.13 130 (ЮВ) 7{11}  20000 м    ясно 
+3.9 -0.4 73 +1  1032.8  -0.5  733  291    +8.3       
18 24.10.13 140 (ЮВ) 6{10}  20000 м    ясно 
+1.6 -0.1 88 -2  1032.6  -0.7  732  293           
21 24.10.13 140 (ЮВ) 6{11}  20000 м    ясно 
+1.1 -0.1 92 -2  1031  -1.5  731  293           
00 25.10.13 150 (ЮВ) 8-10{11}  20000 м    ясно 
+2.2 -0.2 84 -2  1029.5  -1.2  730  292           
03 25.10.13 140 (ЮВ) 3{10}  20000 м    ясно 
+0.5 -0.9 90 -1  1029.6  -0.3  730  294  +0.3         
06 25.10.13 160 (Ю) 20000 м    ясно 
+6.6 +2.4 75 +6  1028.3  730  287  -0.6         
09 25.10.13 140 (ЮВ) 20000 м    ясно 
+15.1 +3.5 46 +16  1025.5  729  278           
12 25.10.13 060 (СВ) 20000 м    1/0 средняя 
[Ac trans]
+17 +2.6 38 +18  1023.8  -1.2  728  276           
15 25.10.13 130 (ЮВ) 20000 м    1/0 средняя 
[Ac trans]
+10.6 +4.3 65 +11  1024.5  -0.5  728  282    +17.3       
18 25.10.13 230 (ЮЗ) 20000 м    ясно 
+6.8 +2.7 75 +7  1024.8  -0.5  728  286           
21 25.10.13 250 (З) 20000 м    ясно 
+6.1 +1.9 74 +6  1024.2  -0.7  727  286           
00 26.10.13 310 (СЗ) 20000 м    ясно 
+4.6 +2.7 87 +4  1023.4  -1  726  287           
03 26.10.13 270 (З) 20000 м    3/0 средняя 
[Ac trans]
+5.8 +1.5 74 +6  1023.3  0.1  726  286  +4         
06 26.10.13 290 (З) 20000 м    1/0 средняя 
[Ac trans]
+9.9 +4 67 +9  1023.2  0.7  727  282           
09 26.10.13 310 (СЗ) 20000 м    1/0 верхняя 
[Ci fib]
+12.3 +3.4 55 +11  1022.6  0.1  727  280           
12 26.10.13 320 (СЗ) 20000 м    4/0 верхняя 
[Ci fib]
+15 -1.1 33 +15  1021.2  -0.9  726  277           
15 26.10.13 340 (С) 20000 м    3/0 верхняя 
[Ci fib]
+9.7 +1.9 58 +9  1023.2  727  283    +16.5       
18 26.10.13 010 (С) 20000 м    ясно 
+7.2 +1.7 68 +7  1024.4  727  285           
21 26.10.13 230 (ЮЗ) 20000 м    ясно 
+3.9 +0.5 78 +5  1024.9  -0.2  727  289           
00 27.10.13 220 (ЮЗ) 20000 м    ясно 
+3.5 +0.3 79 +4  1024.3  -0.7  727  289           
03 27.10.13 350 (С) 20000 м    ясно 
+3.8 +0.9 81 +3  1024.4  0.2  727  289  +2.5         
06 27.10.13 160 (Ю) 20000 м    ясно 
+8.8 +3 67 +8  1023.3  0.1  727  283           
09 27.10.13 200 (Ю) 20000 м    6/0 верхняя 
[Ci]
+15.9 -0.6 32 +17  1020.9  -1  726  276           
12 27.10.13 280 (З) 20000 м    8/0 верхняя 
[Ci fib]
+14.6 +3.4 47 +14  1020  -1.1  725  277           
15 27.10.13 270 (З) 20000 м    6/0 верхняя 
[Ci fib]
+10.7 +5.2 69 +10  1020.6  0.1  725  280    +16.7       
18 27.10.13 200 (Ю) 20000 м    6/0 средняя, верхняя 
[Ac trans|Ci]
+8.3 +5.1 80 +8  1020.5  -0.5  725  283           
21 27.10.13 270 (З) 20000 м    8/0 средняя, верхняя 
[Ac trans|Ci fib]
+9.2 +6.7 84 +9  1019.7  -0.5  724  281           
00 28.10.13 270 (З) 20000 м    10/3 1000 м средняя 
[Sc|Ac und]
+9.5 +6.7 83 +8  1018.9  -0.7  724  281           
03 28.10.13 250 (З) 20000 м  слаб. ливневой дождь  10/4 1000 м кучево-дожд., средняя 
[Cb cap|Ac und]
+9.2 +7.4 89 +8  1018.8  -0.1  724  281  +6.9    0.0     
06 28.10.13 270 (З) 10 км  {ливн. осадки}  10/6 330 м кучево-дожд., средняя 
[Cb calv|Ac trans]
+9.9 +7.8 87 +9  1018.9  0.2  724  280           
09 28.10.13 280 (З) 6{11}  20000 м    10/8 360 м кучево-дожд., средняя 
[Cb calv|Ac trans]
+11.6 +7.9 78 +10  1018.3  -0.2  724  278           
12 28.10.13 280 (З) 5{12}  20000 м    9/4 600 м кучево-дожд., средняя 
[Cb calv|Ac trans]
+11.7 +8.1 79 +11  1018.3  0.1  724  278           
15 28.10.13 270 (З) 10 км    4/3 600 м средняя 
[Sc diur, vesp|Ac trans]
+9.1 +7.8 92 +9  1019.5  0.6  724  281    +12.3       
18 28.10.13 230 (ЮЗ) 2500 м  дымка{туман}  6/6 420 м 
[St]
+6.9 +6.4 97 +7  1020.4  0.4  725  284           
21 28.10.13 230 (ЮЗ) 4000 м  дымка  3/3 600 м 
[Sc]
+5.6 +4.9 95 +5  1020.4  -0.3  724  285           
00 29.10.13 220 (ЮЗ) 2000 м  дымка  3/3 600 м 
[Sc]
+6 +5.5 97 +6  1020  -0.3  724  285           
03 29.10.13 180 (Ю) 10 км    4/4 600 м 
[Sc]
+7.1 +5.9 92 +7  1019.8  0.1  724  283  +4.9         
06 29.10.13 290 (З) 20000 м    5/3 600 м средняя 
[Sc|Ac trans]
+12.8 +7.1 68 +12  1019.7  725  278           
09 29.10.13 300 (СЗ) 20000 м    8/3 600 м верхняя 
[Sc|Ci fib]
+14.7 +7.3 61 +15  1019.3  -0.1  725  276           
12 29.10.13 300 (СЗ) 20000 м    6/1 1000 м верхняя 
[Sc|Ci fib]
+15.7 +6.8 55 +16  1018.6  -0.5  725  275           
15 29.10.13 340 (С) 20000 м    6/0 верхняя 
[Ci fib]
+11.9 +5.5 65 +12  1020.1  0.7  725  279    +15.9       
18 29.10.13 020 (С) 20000 м    8/0 верхняя 
[Ci fib]
+8.7 +6.7 87 +9  1021.8  0.7  726  282           
21 29.10.13 190 (Ю) 10 км    5/0 верхняя 
[Ci fib]
+5.7 +5.1 96 +5  1022.6  0.2  726  286           
00 30.10.13 210 (ЮЗ) 20000 м    3/0 средняя 
[Ac trans]
+7 +5.6 91 +7  1022.4  726  284           
03 30.10.13 200 (Ю) 20000 м    1/0 средняя 
[Ac trans]
+6.1 +4.6 90 +6  1022.4  -0.2  726  285  +4.8         
06 30.10.13 130 (ЮВ) 20000 м    ясно 
+12.7 +8 73 +14  1022.2  727  278           
09 30.10.13 110 (В) 20000 м    ясно 
+15.9 +7.7 58 +16  1021  -0.6  726  275           
12 30.10.13 090 (В) 20000 м    ясно 
+17.1 +6.8 51 +17  1020.4  -0.4  726  274           
15 30.10.13 090 (В) 20000 м    ясно 
+10.4 +5.6 72 +10  1022.2  0.5  726  281    +17.2       
18 30.10.13 140 (ЮВ) 20000 м    ясно 
+10.1 +6 76 +10  1022.5  0.2  727  281           
21 30.10.13 170 (Ю) 20000 м    ясно 
+7.9 +5.4 84 +7  1022.2  0.2  726  283           
00 31.10.13 140 (ЮВ) 10 км    ясно 
+8.5 +5.6 82 +7  1021.5  -0.5  726  283           
03 31.10.13 190 (Ю) 20000 м    ясно 
+7.8 +4.4 79 +8  1022  0.3  726  284  +6.9         
06 31.10.13 340 (С) 20000 м    1/0 средняя 
[Ac trans]
+14.8 +5.8 55 +16  1020.9  0.3  726  277  +5.9         
09 31.10.13 290 (З) 20000 м    ясно 
+18 +5.4 43 +18  1020.1  -0.2  726  274           
12 31.10.13 290 (З) 5{10}  20000 м    ясно 
+17.6 +5.8 46 +18  1020.2  726  274           
15 31.10.13 300 (СЗ) 20000 м    4/0 верхняя 
[Ci fib]
+12.7 +6.9 68 +13  1022.7  1.5  727  279    +18.5       
18 31.10.13 310 (СЗ) 20000 м    5/0 верхняя 
[Ci fib]
+11.5 +7.9 79 +11  1024  728  280           
21 31.10.13 330 (СЗ) 3{10}  0050 м  туман местами  ?/?  
+8.9 +8.4 97 +8  1026.6  729  283           
00 01.11.13 350 (С) 0300 м  туман  ?/?  
+8.9 +8.4 97 +8  1027.9  1.2  730  283           
03 01.11.13 030 (СВ) 2000 м  дымка{морось, туман}  10/10 100 м 
[St]
+7 +6.6 97 +6  1029.7  1.3  731  286  +7    0.0     
06 01.11.13 090 (В) 20000 м  {морось, туман}  3/3 600 м 
[Sc]
+7.4 +5.8 90 +6  1030.7  732  286  +5.5         
09 01.11.13 090 (В) 20000 м  {морось, туман}  3/3 600 м 
[Sc]
+7.4 +5.8 90 +6  1030.7  732  286  +5.5         
Время (UTC), дата Ветер
(°,м/с) 
Видим.   Явления Облачность Т
(°С)
Тd
(°С)
f(%) Тe
(°С)
Pmin
(гПа)
dP
(гПа)
Po
(мм)
O2
(г/м3)
Тmin Tmax R s Состояние
почвы